TNO1171 MPMG-MUHA

Flight info

Callsign TNO1171
Flight time 1h 58m
Altitude 43000
Route PA990 DCT OSUPA DCT ARNAL/N0496F240 L465 EMASA/N0485F430 UL465 GCM/N0495F240 G448 ATUVI KAVUL5B
Aircraft C750/M-SBDE3FGHRWXY/S

Departure

Time 2026-05-08 15:34
Airport Marcos A. Gelabert International Airport (MPMG)

Arrival

Time 2026-05-08 17:32
Airport José Martí International Airport (MUHA)
Time Latitude Longitude Altitude Speed Heading
2026-05-08 15:28 8.97156 -79.55817 32 ft 0 kts 291°
2026-05-08 15:31 8.97159 -79.55840 32 ft 6 kts 257°
2026-05-08 15:31 8.97110 -79.55879 32 ft 13 kts 204°
2026-05-08 15:31 8.97004 -79.55920 31 ft 20 kts 200°
2026-05-08 15:31 8.96885 -79.55967 31 ft 17 kts 201°
2026-05-08 15:32 8.96778 -79.55995 31 ft 14 kts 164°
2026-05-08 15:32 8.96704 -79.55939 31 ft 13 kts 145°
2026-05-08 15:32 8.96631 -79.55887 30 ft 13 kts 144°
2026-05-08 15:32 8.96558 -79.55829 31 ft 14 kts 127°
2026-05-08 15:33 8.96543 -79.55741 30 ft 12 kts 93°
2026-05-08 15:33 8.96536 -79.55658 30 ft 12 kts 96°
2026-05-08 15:33 8.96550 -79.55627 29 ft 5 kts 12°
2026-05-08 15:33 8.96572 -79.55625 29 ft 20 kts
2026-05-08 15:34 8.97083 -79.55579 30 ft 124 kts
2026-05-08 15:34 8.98107 -79.55486 271 ft 156 kts
2026-05-08 15:34 8.99209 -79.55349 989 ft 162 kts
2026-05-08 15:34 9.00347 -79.55143 1716 ft 170 kts
2026-05-08 15:35 9.01539 -79.54887 2388 ft 180 kts
2026-05-08 15:35 9.02795 -79.54724 3138 ft 183 kts
2026-05-08 15:35 9.04075 -79.54659 3962 ft 186 kts
2026-05-08 15:35 9.05363 -79.54613 4874 ft 183 kts
2026-05-08 15:36 9.06616 -79.54462 5738 ft 181 kts 12°
2026-05-08 15:36 9.07445 -79.54303 6190 ft 187 kts 12°
2026-05-08 15:36 9.09261 -79.54033 6922 ft 211 kts
2026-05-08 15:36 9.10781 -79.53966 7676 ft 219 kts
2026-05-08 15:37 9.12298 -79.53959 8603 ft 222 kts
2026-05-08 15:37 9.13842 -79.53992 9535 ft 223 kts
2026-05-08 15:37 9.15412 -79.53909 10298 ft 230 kts
2026-05-08 15:37 9.17080 -79.53741 10674 ft 254 kts
2026-05-08 15:38 9.18945 -79.53680 10902 ft 282 kts
2026-05-08 15:38 9.21002 -79.53617 11058 ft 310 kts
2026-05-08 15:38 9.23256 -79.53490 11126 ft 337 kts
2026-05-08 15:38 9.25678 -79.53347 11342 ft 356 kts
2026-05-08 15:39 9.28162 -79.53226 12119 ft 357 kts
2026-05-08 15:39 9.30662 -79.53107 12798 ft 361 kts
2026-05-08 15:39 9.33174 -79.52976 13436 ft 365 kts
2026-05-08 15:39 9.35725 -79.52842 14054 ft 369 kts
2026-05-08 15:40 9.38298 -79.52710 14670 ft 372 kts
2026-05-08 15:40 9.40900 -79.52580 15254 ft 376 kts
2026-05-08 15:40 9.43503 -79.52447 15837 ft 380 kts
2026-05-08 15:40 9.46159 -79.52308 16454 ft 384 kts
2026-05-08 15:41 9.48849 -79.52170 17066 ft 388 kts
2026-05-08 15:41 9.51559 -79.52034 17670 ft 392 kts
2026-05-08 15:41 9.54299 -79.51895 18265 ft 396 kts
2026-05-08 15:41 9.57056 -79.51753 18884 ft 399 kts
2026-05-08 15:42 9.58907 -79.51658 19294 ft 402 kts
2026-05-08 15:42 9.61717 -79.51513 19932 ft 406 kts
2026-05-08 15:42 9.64550 -79.51369 20540 ft 410 kts
2026-05-08 15:42 9.67406 -79.51219 21141 ft 413 kts
2026-05-08 15:43 9.70298 -79.51070 21734 ft 417 kts
2026-05-08 15:43 9.73213 -79.50923 22312 ft 421 kts
2026-05-08 15:43 9.76150 -79.50772 22891 ft 425 kts
2026-05-08 15:43 9.79115 -79.50620 23442 ft 429 kts
2026-05-08 15:44 9.82102 -79.50467 23995 ft 432 kts
2026-05-08 15:44 9.85124 -79.50347 24509 ft 437 kts
2026-05-08 15:44 9.88177 -79.50659 25015 ft 444 kts 352°
2026-05-08 15:44 9.91216 -79.51306 25555 ft 447 kts 350°
2026-05-08 15:45 9.94268 -79.51960 26077 ft 451 kts 350°
2026-05-08 15:45 9.97354 -79.52606 26597 ft 454 kts 350°
2026-05-08 15:45 10.00462 -79.53261 27098 ft 458 kts 350°
2026-05-08 15:45 10.03589 -79.53932 27618 ft 461 kts 350°
2026-05-08 15:46 10.06737 -79.54605 28112 ft 464 kts 350°
2026-05-08 15:46 10.09915 -79.55278 28581 ft 467 kts 350°
2026-05-08 15:46 10.13069 -79.55945 29036 ft 470 kts 349°
2026-05-08 15:46 10.16279 -79.56629 29473 ft 474 kts 349°
2026-05-08 15:47 10.19517 -79.57320 29906 ft 476 kts 349°
2026-05-08 15:47 10.22773 -79.58013 30321 ft 479 kts 349°
2026-05-08 15:47 10.26047 -79.58708 30724 ft 482 kts 349°
2026-05-08 15:47 10.29331 -79.59409 31195 ft 481 kts 349°
2026-05-08 15:48 10.35854 -79.60798 32356 ft 477 kts 349°
2026-05-08 15:48 10.39097 -79.61488 32884 ft 475 kts 349°
2026-05-08 15:48 10.42327 -79.62177 33427 ft 474 kts 349°
2026-05-08 15:49 10.45547 -79.62865 33957 ft 472 kts 349°
2026-05-08 15:49 10.48752 -79.63546 34481 ft 470 kts 349°
2026-05-08 15:49 10.51955 -79.64229 35011 ft 469 kts 349°
2026-05-08 15:49 10.55142 -79.64909 35526 ft 467 kts 349°
2026-05-08 15:50 10.58323 -79.65589 36021 ft 466 kts 349°
2026-05-08 15:50 10.61492 -79.66263 36503 ft 465 kts 349°
2026-05-08 15:50 10.64653 -79.66937 36959 ft 464 kts 349°
2026-05-08 15:50 10.67813 -79.67612 37426 ft 464 kts 349°
2026-05-08 15:51 10.70923 -79.68277 37880 ft 463 kts 349°
2026-05-08 15:51 10.74072 -79.68950 38329 ft 462 kts 349°
2026-05-08 15:51 10.77219 -79.69622 38769 ft 462 kts 349°
2026-05-08 15:51 10.80358 -79.70291 39212 ft 461 kts 349°
2026-05-08 15:52 10.83497 -79.70962 39651 ft 460 kts 349°
2026-05-08 15:52 10.86630 -79.71632 40085 ft 460 kts 349°
2026-05-08 15:52 10.89765 -79.72302 40536 ft 458 kts 348°
2026-05-08 15:52 10.92883 -79.72969 40967 ft 457 kts 348°
2026-05-08 15:53 10.96000 -79.73635 41379 ft 457 kts 348°
2026-05-08 15:53 10.99107 -79.74300 41779 ft 456 kts 348°
2026-05-08 15:53 11.02211 -79.74964 42161 ft 455 kts 348°
2026-05-08 15:53 11.05307 -79.75627 42579 ft 454 kts 348°
2026-05-08 15:54 11.08393 -79.76287 42933 ft 454 kts 348°
2026-05-08 15:54 11.14653 -79.77629 42920 ft 470 kts 348°
2026-05-08 15:55 11.21166 -79.79022 42947 ft 485 kts 348°
2026-05-08 15:55 11.27862 -79.80458 42940 ft 497 kts 348°
2026-05-08 15:55 11.31257 -79.81186 42941 ft 501 kts 348°
2026-05-08 15:56 11.38127 -79.82658 42947 ft 505 kts 348°
2026-05-08 15:56 11.45002 -79.84134 42943 ft 505 kts 348°
2026-05-08 15:57 11.51869 -79.85607 42936 ft 503 kts 348°
2026-05-08 15:57 11.58718 -79.87079 42932 ft 502 kts 348°
2026-05-08 15:58 11.65521 -79.88540 42942 ft 503 kts 348°
2026-05-08 15:58 11.72375 -79.90014 42941 ft 503 kts 348°
2026-05-08 15:59 11.79232 -79.91489 42945 ft 503 kts 348°
2026-05-08 15:59 11.86094 -79.92965 42948 ft 503 kts 348°
2026-05-08 16:00 11.92947 -79.94441 42950 ft 503 kts 348°
2026-05-08 16:00 11.99794 -79.95916 42948 ft 503 kts 348°
2026-05-08 16:01 12.06610 -79.97385 42959 ft 504 kts 348°
2026-05-08 16:01 12.13509 -79.98873 42953 ft 503 kts 348°
2026-05-08 16:02 12.20316 -80.00342 42955 ft 503 kts 348°
2026-05-08 16:02 12.27178 -80.01823 42956 ft 503 kts 348°
2026-05-08 16:03 12.34035 -80.03307 42948 ft 503 kts 348°
2026-05-08 16:03 12.40882 -80.04782 42951 ft 503 kts 348°
2026-05-08 16:04 12.47741 -80.06268 42952 ft 503 kts 348°
2026-05-08 16:04 12.54559 -80.07742 42958 ft 503 kts 348°
2026-05-08 16:05 12.61416 -80.09227 42957 ft 503 kts 348°
2026-05-08 16:05 12.68259 -80.10708 42955 ft 503 kts 348°
2026-05-08 16:06 12.75110 -80.12193 42954 ft 503 kts 348°
2026-05-08 16:06 12.81962 -80.13679 42959 ft 503 kts 348°
2026-05-08 16:07 12.88765 -80.15155 42953 ft 503 kts 348°
2026-05-08 16:07 12.95608 -80.16640 42954 ft 503 kts 348°
2026-05-08 16:08 13.02454 -80.18127 42961 ft 503 kts 348°
2026-05-08 16:08 13.09300 -80.19614 42968 ft 503 kts 348°
2026-05-08 16:09 13.15036 -80.20862 42959 ft 502 kts 348°
2026-05-08 16:09 13.22985 -80.22591 42955 ft 502 kts 348°
2026-05-08 16:10 13.29837 -80.24083 42955 ft 503 kts 348°
2026-05-08 16:10 13.36680 -80.25573 42959 ft 503 kts 348°
2026-05-08 16:11 13.43530 -80.27066 42962 ft 503 kts 348°
2026-05-08 16:11 13.50327 -80.28548 42959 ft 502 kts 348°
2026-05-08 16:12 13.57179 -80.30043 42970 ft 503 kts 348°
2026-05-08 16:12 13.64027 -80.31538 42965 ft 503 kts 348°
2026-05-08 16:13 13.70879 -80.33035 42969 ft 502 kts 348°
2026-05-08 16:13 13.77719 -80.34530 42969 ft 503 kts 348°
2026-05-08 16:14 13.84564 -80.36027 42959 ft 502 kts 348°
2026-05-08 16:14 13.91406 -80.37524 42959 ft 502 kts 348°
2026-05-08 16:15 13.98243 -80.39021 42960 ft 503 kts 348°
2026-05-08 16:15 14.05037 -80.40510 42959 ft 502 kts 348°
2026-05-08 16:16 14.11864 -80.42006 42967 ft 502 kts 348°
2026-05-08 16:16 14.18689 -80.43504 42972 ft 502 kts 348°
2026-05-08 16:17 14.24379 -80.44753 42967 ft 502 kts 348°
2026-05-08 16:17 14.32364 -80.46506 42966 ft 502 kts 348°
2026-05-08 16:18 14.39187 -80.48006 42971 ft 501 kts 348°
2026-05-08 16:18 14.46006 -80.49505 42969 ft 501 kts 348°
2026-05-08 16:19 14.52777 -80.50996 42970 ft 501 kts 348°
2026-05-08 16:19 14.59591 -80.52496 42969 ft 501 kts 348°
2026-05-08 16:20 14.66410 -80.53998 42965 ft 501 kts 348°
2026-05-08 16:20 14.73235 -80.55503 42972 ft 501 kts 348°
2026-05-08 16:21 14.80047 -80.57006 42965 ft 501 kts 348°
2026-05-08 16:21 14.86858 -80.58509 42965 ft 500 kts 348°
2026-05-08 16:22 14.93618 -80.60003 42972 ft 500 kts 348°
2026-05-08 16:22 15.00419 -80.61489 42968 ft 499 kts 349°
2026-05-08 16:23 15.07281 -80.62667 42967 ft 500 kts 351°
2026-05-08 16:23 15.14135 -80.63860 42975 ft 499 kts 350°
2026-05-08 16:24 15.20986 -80.65042 42973 ft 499 kts 351°
2026-05-08 16:24 15.27832 -80.66229 42968 ft 498 kts 350°
2026-05-08 16:25 15.34685 -80.67416 42968 ft 499 kts 351°
2026-05-08 16:25 15.41479 -80.68594 42974 ft 497 kts 350°
2026-05-08 16:26 15.48315 -80.69781 42967 ft 498 kts 350°
2026-05-08 16:26 15.55149 -80.70967 42974 ft 498 kts 350°
2026-05-08 16:27 15.61984 -80.72155 42976 ft 498 kts 350°
2026-05-08 16:27 15.68819 -80.73343 42978 ft 498 kts 350°
2026-05-08 16:28 15.75652 -80.74532 42981 ft 498 kts 350°
2026-05-08 16:28 15.82479 -80.75721 42971 ft 496 kts 350°
2026-05-08 16:29 15.88144 -80.76708 42970 ft 497 kts 350°
2026-05-08 16:29 15.94971 -80.77898 42973 ft 497 kts 350°
2026-05-08 16:30 16.01791 -80.79087 42985 ft 496 kts 350°
2026-05-08 16:30 16.08566 -80.80270 42993 ft 496 kts 350°
2026-05-08 16:31 16.15375 -80.81459 42993 ft 496 kts 350°
2026-05-08 16:31 16.22179 -80.82649 42993 ft 496 kts 350°
2026-05-08 16:32 16.28986 -80.83839 42993 ft 496 kts 350°
2026-05-08 16:32 16.35794 -80.85031 42993 ft 496 kts 350°
2026-05-08 16:33 16.42600 -80.86223 42992 ft 496 kts 350°
2026-05-08 16:33 16.49410 -80.87417 43007 ft 495 kts 350°
2026-05-08 16:34 16.56172 -80.88603 43005 ft 496 kts 350°
2026-05-08 16:34 16.62975 -80.89797 43006 ft 496 kts 350°
2026-05-08 16:35 16.69784 -80.90993 43005 ft 496 kts 350°
2026-05-08 16:35 16.76596 -80.92191 43006 ft 496 kts 350°
2026-05-08 16:36 16.83399 -80.93387 43004 ft 496 kts 350°
2026-05-08 16:36 16.90212 -80.94587 43005 ft 496 kts 350°
2026-05-08 16:37 16.97000 -80.95783 43003 ft 495 kts 350°
2026-05-08 16:37 17.03798 -80.96981 43013 ft 495 kts 350°
2026-05-08 16:38 17.10545 -80.98172 43015 ft 495 kts 350°
2026-05-08 16:38 17.17334 -80.99370 43014 ft 495 kts 350°
2026-05-08 16:39 17.24127 -81.00571 43014 ft 495 kts 350°
2026-05-08 16:39 17.30917 -81.01771 43012 ft 495 kts 350°
2026-05-08 16:40 17.37707 -81.02973 43013 ft 494 kts 350°
2026-05-08 16:40 17.44484 -81.04173 43010 ft 494 kts 350°
2026-05-08 16:41 17.51259 -81.05374 43010 ft 494 kts 350°
2026-05-08 16:42 17.61377 -81.07169 43013 ft 494 kts 350°
2026-05-08 16:42 17.68155 -81.08372 43012 ft 494 kts 350°
2026-05-08 16:43 17.74932 -81.09576 43010 ft 494 kts 350°
2026-05-08 16:43 17.81710 -81.10782 43010 ft 494 kts 350°
2026-05-08 16:44 17.88496 -81.11989 43009 ft 494 kts 350°
2026-05-08 16:44 17.95276 -81.13197 43011 ft 494 kts 350°
2026-05-08 16:45 18.02015 -81.14398 43011 ft 494 kts 350°
2026-05-08 16:45 18.08776 -81.15604 43010 ft 493 kts 350°
2026-05-08 16:46 18.15544 -81.16813 43025 ft 493 kts 350°
2026-05-08 16:46 18.22317 -81.18023 43023 ft 493 kts 350°
2026-05-08 16:47 18.29081 -81.19232 43022 ft 493 kts 350°
2026-05-08 16:47 18.35848 -81.20443 43022 ft 493 kts 350°
2026-05-08 16:48 18.42616 -81.21655 43022 ft 493 kts 350°
2026-05-08 16:48 18.49389 -81.22869 43022 ft 493 kts 350°
2026-05-08 16:49 18.56157 -81.24083 43022 ft 493 kts 350°
2026-05-08 16:49 18.62933 -81.25300 43022 ft 493 kts 350°
2026-05-08 16:50 18.69655 -81.26507 43022 ft 493 kts 350°
2026-05-08 16:50 18.76423 -81.27724 43021 ft 493 kts 350°
2026-05-08 16:51 18.83194 -81.28943 43021 ft 493 kts 350°
2026-05-08 16:51 18.89964 -81.30162 43021 ft 493 kts 350°
2026-05-08 16:52 18.96736 -81.31383 43021 ft 493 kts 349°
2026-05-08 16:52 19.03512 -81.32605 43020 ft 493 kts 349°
2026-05-08 16:53 19.13676 -81.34441 43020 ft 494 kts 349°
2026-05-08 16:53 19.20442 -81.35664 43020 ft 494 kts 349°
2026-05-08 16:54 19.27210 -81.36888 43020 ft 493 kts 349°
2026-05-08 16:54 19.33995 -81.37564 43017 ft 494 kts 356°
2026-05-08 16:55 19.40860 -81.38004 43021 ft 494 kts 355°
2026-05-08 16:55 19.47724 -81.38496 43024 ft 494 kts 355°
2026-05-08 16:56 19.54598 -81.38952 43024 ft 494 kts 355°
2026-05-08 16:56 19.61460 -81.39433 43024 ft 494 kts 355°
2026-05-08 16:57 19.68325 -81.39898 43023 ft 494 kts 355°
2026-05-08 16:57 19.75195 -81.40374 43023 ft 495 kts 355°
2026-05-08 16:58 19.82013 -81.40840 43024 ft 494 kts 355°
2026-05-08 16:58 19.88876 -81.41314 43024 ft 494 kts 355°
2026-05-08 16:59 19.95741 -81.41786 43023 ft 495 kts 355°
2026-05-08 16:59 20.02470 -81.43117 43013 ft 492 kts 340°
2026-05-08 17:00 20.08774 -81.45935 43039 ft 491 kts 336°
2026-05-08 17:00 20.15113 -81.48663 43036 ft 491 kts 338°
2026-05-08 17:01 20.21431 -81.51438 43033 ft 491 kts 336°
2026-05-08 17:01 20.27745 -81.54198 43033 ft 490 kts 337°
2026-05-08 17:02 20.34057 -81.56958 43032 ft 490 kts 336°
2026-05-08 17:02 20.40328 -81.59710 43032 ft 490 kts 337°
2026-05-08 17:03 20.46636 -81.62473 43031 ft 490 kts 337°
2026-05-08 17:03 20.52940 -81.65243 43031 ft 490 kts 337°
2026-05-08 17:04 20.59245 -81.68011 43031 ft 490 kts 337°
2026-05-08 17:04 20.65556 -81.70788 43031 ft 490 kts 337°
2026-05-08 17:05 20.71873 -81.73567 43031 ft 490 kts 336°
2026-05-08 17:05 20.78174 -81.76344 43031 ft 490 kts 336°
2026-05-08 17:06 20.84476 -81.79123 43031 ft 490 kts 336°
2026-05-08 17:06 20.90779 -81.81905 43041 ft 490 kts 336°
2026-05-08 17:07 20.97041 -81.84671 43041 ft 489 kts 336°
2026-05-08 17:07 21.03334 -81.87453 43040 ft 489 kts 336°
2026-05-08 17:08 21.09624 -81.90237 43040 ft 489 kts 336°
2026-05-08 17:08 21.15913 -81.93023 43040 ft 489 kts 336°
2026-05-08 17:09 21.22203 -81.95812 43040 ft 489 kts 336°
2026-05-08 17:09 21.28488 -81.98601 43040 ft 488 kts 336°
2026-05-08 17:10 21.34764 -82.01389 43040 ft 488 kts 336°
2026-05-08 17:10 21.40986 -82.04154 42920 ft 481 kts 336°
2026-05-08 17:11 21.44036 -82.05510 42251 ft 468 kts 336°
2026-05-08 17:11 21.47012 -82.06835 41632 ft 457 kts 336°
2026-05-08 17:11 21.49913 -82.08128 41038 ft 447 kts 336°
2026-05-08 17:11 21.52751 -82.09393 40451 ft 437 kts 336°
2026-05-08 17:12 21.55535 -82.10633 39878 ft 431 kts 336°
2026-05-08 17:12 21.58296 -82.11865 39314 ft 429 kts 336°
2026-05-08 17:12 21.61059 -82.13099 38742 ft 433 kts 336°
2026-05-08 17:12 21.63862 -82.14349 38163 ft 438 kts 336°
2026-05-08 17:13 21.66692 -82.15612 37577 ft 442 kts 336°
2026-05-08 17:13 21.69541 -82.16886 36990 ft 444 kts 336°
2026-05-08 17:13 21.72398 -82.18159 36389 ft 445 kts 336°
2026-05-08 17:13 21.75256 -82.19436 35797 ft 445 kts 336°
2026-05-08 17:14 21.78126 -82.20721 35196 ft 447 kts 336°
2026-05-08 17:14 21.81009 -82.22012 34600 ft 450 kts 336°
2026-05-08 17:14 21.83904 -82.23307 34037 ft 452 kts 336°
2026-05-08 17:14 21.86798 -82.24603 33904 ft 452 kts 336°
2026-05-08 17:15 21.89736 -82.25920 33204 ft 460 kts 336°
2026-05-08 17:15 21.92690 -82.27244 32553 ft 459 kts 336°
2026-05-08 17:15 21.95637 -82.28565 31952 ft 460 kts 336°
2026-05-08 17:15 21.98562 -82.29876 31327 ft 462 kts 336°
2026-05-08 17:16 22.01548 -82.31213 30697 ft 464 kts 336°
2026-05-08 17:16 22.04534 -82.32552 30066 ft 463 kts 336°
2026-05-08 17:16 22.07488 -82.33881 29494 ft 458 kts 336°
2026-05-08 17:16 22.10415 -82.35197 28901 ft 453 kts 336°
2026-05-08 17:17 22.12373 -82.36074 28507 ft 449 kts 336°
2026-05-08 17:17 22.15353 -82.37022 27924 ft 449 kts 350°
2026-05-08 17:17 22.18414 -82.37296 27392 ft 445 kts 355°
2026-05-08 17:17 22.21510 -82.37484 26813 ft 441 kts 355°
2026-05-08 17:18 22.24474 -82.38172 26082 ft 435 kts 337°
2026-05-08 17:18 22.27094 -82.39752 25455 ft 425 kts 328°
2026-05-08 17:18 22.29596 -82.41428 24923 ft 423 kts 329°
2026-05-08 17:18 22.32166 -82.42956 24393 ft 419 kts 332°
2026-05-08 17:19 22.34763 -82.44369 23854 ft 416 kts 333°
2026-05-08 17:19 22.37269 -82.45821 23320 ft 413 kts 330°
2026-05-08 17:19 22.39763 -82.47356 22782 ft 412 kts 330°
2026-05-08 17:19 22.42263 -82.48856 22248 ft 411 kts 331°
2026-05-08 17:20 22.44782 -82.50311 21718 ft 410 kts 332°
2026-05-08 17:20 22.47291 -82.51772 21190 ft 408 kts 331°
2026-05-08 17:20 22.49770 -82.53254 20671 ft 407 kts 331°
2026-05-08 17:20 22.52246 -82.54729 20153 ft 405 kts 331°
2026-05-08 17:21 22.54724 -82.56186 19641 ft 404 kts 332°
2026-05-08 17:21 22.57184 -82.57633 19140 ft 402 kts 332°
2026-05-08 17:21 22.59634 -82.59089 18641 ft 400 kts 331°
2026-05-08 17:21 22.62071 -82.60535 18141 ft 399 kts 332°
2026-05-08 17:22 22.64501 -82.61971 17637 ft 397 kts 332°
2026-05-08 17:22 22.66913 -82.63398 17155 ft 394 kts 332°
2026-05-08 17:22 22.69306 -82.64819 16671 ft 391 kts 332°
2026-05-08 17:22 22.71689 -82.66232 16196 ft 390 kts 332°
2026-05-08 17:23 22.74068 -82.67641 15722 ft 389 kts 332°
2026-05-08 17:23 22.76513 -82.68853 15188 ft 387 kts 344°
2026-05-08 17:23 22.79166 -82.69139 14629 ft 381 kts
2026-05-08 17:23 22.81685 -82.68498 14109 ft 376 kts 24°
2026-05-08 17:24 22.83880 -82.67010 13608 ft 370 kts 42°
2026-05-08 17:24 22.85491 -82.64878 13116 ft 364 kts 60°
2026-05-08 17:24 22.86432 -82.62349 12654 ft 359 kts 74°
2026-05-08 17:24 22.87141 -82.59756 12238 ft 358 kts 75°
2026-05-08 17:25 22.88053 -82.57263 11717 ft 357 kts 61°
2026-05-08 17:25 22.89455 -82.55140 11257 ft 335 kts 55°
2026-05-08 17:25 22.90801 -82.53153 10607 ft 322 kts 56°
2026-05-08 17:25 22.92088 -82.51191 9809 ft 316 kts 56°
2026-05-08 17:26 22.93339 -82.49289 9014 ft 309 kts 55°
2026-05-08 17:26 22.94552 -82.47471 8204 ft 285 kts 55°
2026-05-08 17:26 22.95776 -82.45874 7318 ft 270 kts 40°
2026-05-08 17:26 22.97477 -82.45122 6342 ft 266 kts
2026-05-08 17:27 22.99202 -82.45479 5441 ft 251 kts 339°
2026-05-08 17:27 23.00677 -82.46546 4546 ft 264 kts 312°
2026-05-08 17:27 23.01420 -82.48387 3636 ft 274 kts 278°
2026-05-08 17:27 23.01103 -82.50423 2777 ft 279 kts 247°
2026-05-08 17:28 23.00154 -82.52248 2134 ft 274 kts 237°
2026-05-08 17:28 22.99160 -82.53917 2035 ft 247 kts 237°
2026-05-08 17:28 22.97973 -82.55034 1908 ft 214 kts 201°
2026-05-08 17:28 22.96604 -82.54965 1819 ft 193 kts 155°
2026-05-08 17:29 22.95662 -82.54006 1868 ft 182 kts 133°
2026-05-08 17:29 22.94827 -82.52956 2005 ft 185 kts 133°
2026-05-08 17:29 22.93965 -82.51902 2018 ft 188 kts 134°
2026-05-08 17:29 22.93103 -82.50841 2011 ft 187 kts 132°
2026-05-08 17:30 22.92739 -82.49532 1870 ft 187 kts 84°
2026-05-08 17:30 22.93441 -82.48356 1828 ft 189 kts 40°
2026-05-08 17:30 22.94357 -82.47513 1696 ft 163 kts 45°
2026-05-08 17:30 22.95090 -82.46619 1370 ft 154 kts 50°
2026-05-08 17:31 22.95732 -82.45716 1102 ft 149 kts 53°
2026-05-08 17:31 22.96330 -82.44845 895 ft 142 kts 54°
2026-05-08 17:31 22.96898 -82.43968 682 ft 142 kts 55°
2026-05-08 17:31 22.97459 -82.43103 476 ft 139 kts 55°
2026-05-08 17:32 22.98019 -82.42264 275 ft 134 kts 55°
2026-05-08 17:32 22.98532 -82.41486 216 ft 116 kts 55°
2026-05-08 17:32 22.98917 -82.40904 212 ft 67 kts 53°
2026-05-08 17:32 22.99115 -82.40605 211 ft 41 kts 54°
2026-05-08 17:33 22.99239 -82.40429 211 ft 15 kts 27°
2026-05-08 17:33 22.99333 -82.40410 212 ft 13 kts
2026-05-08 17:33 22.99417 -82.40397 213 ft 11 kts 356°
2026-05-08 17:33 22.99432 -82.40454 213 ft 11 kts 236°
2026-05-08 17:34 22.99372 -82.40539 212 ft 17 kts 232°
2026-05-08 17:34 22.99294 -82.40655 212 ft 19 kts 234°
2026-05-08 17:34 22.99219 -82.40770 212 ft 18 kts 234°
2026-05-08 17:34 22.99146 -82.40880 212 ft 17 kts 234°
2026-05-08 17:35 22.99077 -82.40983 213 ft 16 kts 234°
2026-05-08 17:35 22.99012 -82.41081 213 ft 16 kts 235°
2026-05-08 17:35 22.98941 -82.41189 218 ft 18 kts 234°
2026-05-08 17:35 22.98870 -82.41295 213 ft 18 kts 234°
2026-05-08 17:36 22.98790 -82.41416 213 ft 21 kts 234°
2026-05-08 17:36 22.98698 -82.41554 213 ft 24 kts 234°
2026-05-08 17:36 22.98599 -82.41703 212 ft 23 kts 234°
2026-05-08 17:36 22.98514 -82.41831 216 ft 20 kts 234°
2026-05-08 17:37 22.98455 -82.41921 212 ft 10 kts 238°
2026-05-08 17:37 22.98478 -82.41970 218 ft 6 kts 288°
2026-05-08 17:37 22.98463 -82.41993 218 ft 3 kts 233°
2026-05-08 17:37 22.98464 -82.42005 218 ft 1 kts 311°
2026-05-08 17:38 22.98471 -82.42005 213 ft 1 kts
2026-05-08 17:38 22.98478 -82.42003 213 ft 1 kts 12°